FW4608 Weather Reports


Display with metric or nautical units.
time (UTC)temp
F
wind
direction
speed
MPH
gust
MPH
rain 1hr
in
rain 24hr
in
rain mn
in
humidity
%
barometer
mb
20260904154512 87 189 0.0 1.0 0.00 0.23 0.00 84 1016.2
20260904154010 87 78 0.0 1.0 0.00 0.23 0.00 83 1016.2
20260904153510 87 327 0.0 0.0 0.00 0.23 0.00 84 1016.1
20260904153008 86 135 0.0 3.0 0.00 0.23 0.00 85 1016.0
20260904152507 86 130 0.0 3.0 0.00 0.23 0.00 84 1016.2
20260904152005 86 231 0.0 0.0 0.00 0.23 0.00 85 1016.2
20260904151505 86 257 0.0 0.0 0.00 0.23 0.00 85 1016.2
20260904151003 86 333 0.0 0.0 0.00 0.23 0.00 84 1016.0
20260904150502 85 97 0.0 0.0 0.00 0.23 0.00 86 1016.0
20260904150100 85 141 0.0 0.0 0.00 0.23 0.00 85 1015.9
20260904145556 85 103 0.0 1.0 0.00 0.26 0.00 86 1016.0
20260904145055 84 233 0.0 1.0 0.00 0.26 0.00 86 1015.9
20260904144555 84 229 0.0 1.0 0.00 0.26 0.00 88 1015.9
20260904144054 84 316 0.0 1.0 0.00 0.26 0.00 88 1015.9
20260904143552 83 203 0.0 1.0 0.00 0.26 0.00 88 1016.0
20260904143049 83 248 0.0 2.0 0.00 0.26 0.00 88 1015.9
20260904142551 83 278 0.0 2.0 0.00 0.26 0.00 88 1015.9
20260904142047 83 246 0.0 0.0 0.00 0.26 0.00 89 1015.8
20260904141545 82 246 0.0 0.0 0.00 0.26 0.00 89 1015.8
20260904141042 82 250 0.0 0.0 0.00 0.26 0.00 90 1015.8
20260904140541 81 122 0.0 2.0 0.00 0.26 0.00 91 1015.7
20260904140039 81 288 0.0 2.0 0.00 0.26 0.00 91 1015.7
20260904135637 81 138 0.0 1.0 0.00 0.26 0.00 93 1015.8
20260904135035 81 157 0.0 1.0 0.00 0.26 0.00 94 1015.7
20260904134535 80 232 0.0 1.0 0.00 0.26 0.00 95 1015.7
20260904134031 80 160 0.0 1.0 0.00 0.26 0.00 95 1015.7
20260904133531 80 134 0.0 1.0 0.00 0.26 0.00 95 1015.7
20260904133030 80 134 0.0 1.0 0.00 0.26 0.00 95 1015.6
20260904132529 79 122 0.0 1.0 0.00 0.26 0.00 96 1015.6
20260904132027 79 153 0.0 0.0 0.00 0.26 0.00 96 1015.7
20260904131527 79 314 0.0 0.0 0.00 0.26 0.00 96 1015.6
20260904131026 79 314 0.0 0.0 0.00 0.26 0.00 96 1015.7
20260904130532 79 259 0.0 0.0 0.00 0.26 0.00 96 1015.7
20260904130025 79 259 0.0 0.0 0.00 0.26 0.00 96 1015.7
20260904125525 79 259 0.0 0.0 0.00 0.26 0.00 96 1015.7
20260904125024 79 258 0.0 0.0 0.00 0.26 0.00 96 1015.7
20260904124522 79 259 0.0 0.0 0.00 0.26 0.00 96 1015.5
20260904124019 78 258 0.0 0.0 0.00 0.26 0.00 96 1015.5
20260904123517 78 259 0.0 0.0 0.00 0.26 0.00 96 1015.4
20260904123017 78 259 0.0 0.0 0.00 0.26 0.00 96 1015.4
20260904122516 78 259 0.0 0.0 0.00 0.26 0.00 96 1015.3
20260904122015 78 258 0.0 0.0 0.00 0.26 0.00 96 1015.3
20260904121513 78 259 0.0 0.0 0.00 0.26 0.00 96 1015.2
20260904121012 77 258 0.0 0.0 0.00 0.26 0.00 96 1015.3
20260904120509 77 258 0.0 0.0 0.00 0.26 0.00 96 1015.2
20260904120109 77 259 0.0 0.0 0.00 0.26 0.00 96 1015.1
20260904115509 77 259 0.0 0.0 0.00 0.26 0.00 96 1015.1
20260904115008 76 259 0.0 0.0 0.00 0.26 0.00 95 1015.0
20260904114507 76 258 0.0 0.0 0.00 0.26 0.00 95 1015.1
20260904114007 76 258 0.0 0.0 0.00 0.26 0.00 95 1015.0
20260904113505 76 258 0.0 0.0 0.00 0.26 0.00 95 1015.0
20260904113009 76 258 0.0 0.0 0.00 0.26 0.00 95 1014.9
20260904112503 76 258 0.0 0.0 0.00 0.26 0.00 95 1014.8
20260904112003 76 258 0.0 0.0 0.00 0.26 0.00 95 1014.8
20260904111505 76 258 0.0 0.0 0.00 0.26 0.00 95 1014.8
20260904111002 76 258 0.0 0.0 0.00 0.26 0.00 95 1014.8
20260904110502 76 258 0.0 0.0 0.00 0.26 0.00 95 1014.7
20260904110002 76 258 0.0 0.0 0.00 0.26 0.00 95 1014.7
20260904105503 76 258 0.0 0.0 0.00 0.26 0.00 95 1014.6
20260904105101 76 258 0.0 0.0 0.00 0.26 0.00 95 1014.7
20260904104606 76 258 0.0 0.0 0.00 0.26 0.00 95 1014.6
20260904104059 76 259 0.0 0.0 0.00 0.26 0.00 95 1014.6
20260904103557 76 258 0.0 0.0 0.00 0.26 0.00 95 1014.6
20260904103109 76 259 0.0 0.0 0.00 0.26 0.00 95 1014.5
20260904102557 76 259 0.0 0.0 0.00 0.26 0.00 95 1014.5
20260904102056 76 258 0.0 0.0 0.00 0.26 0.00 95 1014.5
20260904101556 76 258 0.0 0.0 0.00 0.26 0.00 95 1014.5
20260904101054 76 258 0.0 0.0 0.00 0.26 0.00 95 1014.4
20260904100554 76 259 0.0 0.0 0.00 0.26 0.00 95 1014.5
20260904100054 75 258 0.0 0.0 0.00 0.26 0.00 95 1014.4
20260904095553 76 258 0.0 0.0 0.00 0.26 0.00 95 1014.5
20260904095052 76 258 0.0 0.0 0.00 0.26 0.00 95 1014.4
20260904094552 76 258 0.0 0.0 0.00 0.26 0.00 95 1014.4
20260904094050 76 258 0.0 0.0 0.00 0.26 0.00 95 1014.2
20260904093550 76 258 0.0 0.0 0.00 0.26 0.00 95 1014.2
20260904093049 76 258 0.0 0.0 0.00 0.26 0.00 95 1014.2
20260904092548 76 259 0.0 0.0 0.00 0.26 0.00 95 1014.2
20260904092050 76 258 0.0 0.0 0.00 0.26 0.00 95 1014.1
20260904091603 76 258 0.0 0.0 0.00 0.26 0.00 95 1014.2
20260904091050 76 258 0.0 0.0 0.00 0.26 0.00 95 1014.1
20260904090546 76 259 0.0 0.0 0.00 0.26 0.00 95 1014.1
20260904090045 76 258 0.0 0.0 0.00 0.26 0.00 95 1014.1
20260904085544 76 258 0.0 0.0 0.00 0.26 0.00 95 1014.1
20260904085047 76 259 0.0 0.0 0.00 0.26 0.00 95 1014.1
20260904084544 76 259 0.0 0.0 0.00 0.26 0.00 95 1014.1
20260904084042 76 258 0.0 0.0 0.00 0.26 0.00 95 1014.1
20260904083542 76 259 0.0 0.0 0.00 0.26 0.00 95 1014.0
20260904083102 76 258 0.0 0.0 0.00 0.26 0.00 95 1014.0
20260904082540 76 259 0.0 0.0 0.00 0.26 0.00 95 1014.0
20260904082043 76 258 0.0 0.0 0.00 0.26 0.00 95 1014.0
20260904081539 76 258 0.0 0.0 0.00 0.26 0.00 95 1014.1
20260904081038 76 259 0.0 0.0 0.00 0.26 0.00 95 1014.1
20260904080538 76 258 0.0 0.0 0.00 0.26 0.00 95 1014.1
20260904080037 76 258 0.0 0.0 0.00 0.26 0.00 95 1014.1
20260904075538 76 258 0.0 0.0 0.00 0.26 0.00 95 1014.1
20260904075040 76 259 0.0 0.0 0.00 0.26 0.00 95 1014.1
20260904074558 76 258 0.0 0.0 0.00 0.26 0.00 95 1014.1
20260904074034 76 258 0.0 0.0 0.00 0.26 0.00 95 1014.0
20260904073534 76 258 0.0 0.0 0.00 0.26 0.00 95 1014.1
20260904073036 76 258 0.0 0.0 0.00 0.26 0.00 95 1014.1
20260904072533 76 258 0.0 0.0 0.00 0.26 0.00 95 1014.1
20260904072032 76 259 0.0 0.0 0.00 0.26 0.00 95 1014.1
20260904071531 76 258 0.0 0.0 0.00 0.26 0.00 95 1014.2
20260904071035 76 259 0.0 0.0 0.00 0.26 0.00 95 1014.0
20260904070530 76 258 0.0 0.0 0.00 0.26 0.00 95 1014.1
20260904070029 76 258 0.0 0.0 0.00 0.26 0.00 95 1014.1
20260904065533 76 259 0.0 0.0 0.00 0.26 0.00 95 1014.2
20260904065029 76 259 0.0 0.0 0.00 0.26 0.00 95 1014.2
20260904064534 76 258 0.0 0.0 0.00 0.26 0.00 95 1014.2
20260904064026 76 258 0.0 0.0 0.00 0.26 0.00 95 1014.1
20260904063526 76 258 0.0 0.0 0.00 0.26 0.00 95 1014.1
20260904063025 76 259 0.0 0.0 0.00 0.26 0.00 95 1014.2
20260904062528 76 258 0.0 0.0 0.00 0.26 0.00 95 1014.2
20260904062022 76 259 0.0 0.0 0.00 0.26 0.00 95 1014.2
20260904061527 76 259 0.0 0.0 0.00 0.26 0.00 95 1014.3
20260904061021 76 259 0.0 0.0 0.00 0.26 0.00 95 1014.3
20260904060520 76 259 0.0 0.0 0.00 0.26 0.00 95 1014.4
20260904060024 76 259 0.0 0.0 0.00 0.26 0.00 95 1014.5
20260904055516 76 258 0.0 0.0 0.00 0.26 0.00 94 1014.5
20260904055016 76 259 0.0 0.0 0.00 0.26 0.00 94 1014.5
20260904054516 76 259 0.0 0.0 0.00 0.26 0.00 94 1014.6
20260904054014 76 259 0.0 0.0 0.00 0.26 0.00 94 1014.7
20260904053515 77 259 0.0 0.0 0.00 0.26 0.00 95 1014.8
20260904053017 77 258 0.0 0.0 0.00 0.26 0.00 95 1014.7
20260904052510 77 259 0.0 0.0 0.00 0.26 0.00 95 1015.0
20260904052010 77 258 0.0 0.0 0.00 0.26 0.00 94 1015.0
20260904051510 77 258 0.0 0.0 0.00 0.26 0.00 94 1014.8
20260904051008 77 259 0.0 0.0 0.00 0.26 0.00 94 1014.9
20260904050506 77 259 0.0 0.0 0.00 0.26 0.00 94 1015.1
20260904050006 77 259 0.0 0.0 0.00 0.26 0.00 94 1015.1
20260904045505 77 258 0.0 0.0 0.00 0.26 0.00 94 1015.2
20260904045005 77 258 0.0 0.0 0.00 0.26 0.00 94 1015.2
20260904044503 77 258 0.0 0.0 0.00 0.26 0.00 94 1015.2
20260904044003 77 258 0.0 0.0 0.00 0.26 0.00 94 1015.2
20260904043501 77 258 0.0 0.0 0.00 0.26 0.00 94 1015.2
20260904043002 77 258 0.0 0.0 0.00 0.26 0.00 94 1015.2
20260904042603 77 258 0.0 0.0 0.00 0.26 0.00 94 1015.2
20260904042100 77 259 0.0 0.0 0.00 0.26 0.00 94 1015.1
20260904041605 77 258 0.0 0.0 0.00 0.26 0.00 94 1015.1
20260904041058 76 258 0.0 0.0 0.00 0.26 0.00 94 1015.2
20260904040555 76 258 0.0 0.0 0.00 0.26 0.00 94 1015.2
20260904040107 76 258 0.0 0.0 0.00 0.26 0.00 94 1015.2
20260904035554 77 258 0.0 0.0 0.00 0.26 0.26 94 1015.1
20260904035053 77 258 0.0 0.0 0.00 0.26 0.26 94 1015.2
20260904034556 76 258 0.0 0.0 0.00 0.26 0.26 94 1015.1
20260904034051 76 259 0.0 0.0 0.00 0.26 0.26 94 1015.1
20260904033550 77 259 0.0 0.0 0.00 0.26 0.26 94 1015.0
20260904033049 77 258 0.0 0.0 0.00 0.26 0.26 94 1014.9
20260904032552 77 258 0.0 0.0 0.00 0.26 0.26 94 1015.0
20260904032049 77 259 0.0 0.0 0.00 0.26 0.26 94 1015.1
20260904031550 77 258 0.0 0.0 0.00 0.26 0.26 94 1015.0
20260904031047 77 258 0.0 0.0 0.00 0.26 0.26 94 1015.1
20260904030548 77 259 0.0 0.0 0.00 0.26 0.26 93 1015.1
20260904030046 77 258 0.0 0.0 0.00 0.26 0.26 93 1015.1
20260904025546 77 259 0.0 0.0 0.00 0.26 0.26 93 1015.0
20260904025046 77 258 0.0 0.0 0.00 0.26 0.26 93 1015.1
20260904024546 77 258 0.0 0.0 0.00 0.26 0.26 93 1015.0
20260904024048 77 258 0.0 0.0 0.00 0.26 0.26 93 1014.9
20260904023542 77 259 0.0 0.0 0.00 0.26 0.26 93 1014.9
20260904023048 77 259 0.0 0.0 0.00 0.26 0.26 93 1014.8
20260904022541 77 259 0.0 0.0 0.00 0.26 0.26 93 1014.8
20260904022042 77 258 0.0 0.0 0.00 0.26 0.26 93 1014.7
20260904021639 77 259 0.0 0.0 0.00 0.26 0.26 93 1014.8
20260904021039 77 259 0.0 0.0 0.00 0.26 0.26 93 1014.9
20260904020538 77 258 0.0 0.0 0.00 0.26 0.26 93 1014.9
20260904020039 77 259 0.0 0.0 0.00 0.26 0.26 93 1014.8
20260904015536 77 258 0.0 0.0 0.00 0.26 0.26 93 1014.9
20260904015037 77 258 0.0 0.0 0.00 0.26 0.26 93 1015.0
20260904014551 77 258 0.0 0.0 0.00 0.26 0.26 93 1014.9
20260904014035 77 258 0.0 0.0 0.00 0.26 0.26 93 1014.8
20260904013535 77 258 0.0 0.0 0.00 0.26 0.26 92 1014.8
20260904013039 77 258 0.0 0.0 0.00 0.26 0.26 92 1014.7
20260904012533 77 258 0.0 0.0 0.00 0.26 0.26 92 1014.8
20260904012032 77 258 0.0 0.0 0.00 0.26 0.26 92 1014.8
20260904011532 77 258 0.0 0.0 0.00 0.26 0.26 91 1014.8
20260904011031 78 258 0.0 0.0 0.00 0.26 0.26 92 1014.7
20260904010531 78 258 0.0 0.0 0.00 0.26 0.26 91 1014.8
20260904010031 78 258 0.0 0.0 0.00 0.26 0.26 91 1014.8
20260904005533 78 258 0.0 0.0 0.00 0.26 0.26 91 1014.6
20260904005029 78 258 0.0 0.0 0.00 0.26 0.26 91 1014.5
20260904004528 78 258 0.0 0.0 0.00 0.26 0.26 90 1014.4
20260904004028 78 258 0.0 0.0 0.00 0.26 0.26 90 1014.5
20260904003531 78 258 0.0 0.0 0.00 0.26 0.26 90 1014.5
20260904003026 78 258 0.0 0.0 0.00 0.26 0.26 90 1014.3
20260904002525 79 258 0.0 0.0 0.00 0.26 0.26 90 1014.4
20260904002026 79 258 0.0 0.0 0.00 0.26 0.26 89 1014.4
20260904001528 79 258 0.0 0.0 0.00 0.26 0.26 89 1014.4
20260904001023 79 258 0.0 0.0 0.00 0.26 0.26 89 1014.4
20260904000526 79 258 0.0 0.0 0.00 0.26 0.26 89 1014.4
20260904000023 80 268 0.0 0.0 0.00 0.26 0.26 89 1014.4
20260903235522 80 178 0.0 0.0 0.00 0.26 0.26 89 1014.4
20260903235022 80 128 0.0 0.0 0.00 0.26 0.26 89 1014.3
20260903234522 80 128 0.0 0.0 0.00 0.26 0.26 88 1014.2
20260903234021 80 347 0.0 0.0 0.00 0.26 0.26 88 1014.2
20260903233521 81 347 0.0 0.0 0.00 0.26 0.26 88 1014.0
20260903233021 81 350 0.0 0.0 0.00 0.26 0.26 88 1014.1
20260903232519 81 350 0.0 0.0 0.00 0.26 0.26 87 1014.2
20260903232019 81 348 0.0 0.0 0.00 0.26 0.26 87 1014.1
20260903231518 82 321 0.0 0.0 0.00 0.26 0.26 87 1014.0
20260903231017 82 323 0.0 0.0 0.00 0.26 0.26 87 1014.1
20260903230517 82 323 0.0 0.0 0.00 0.26 0.26 87 1014.3
20260903230016 83 323 0.0 0.0 0.00 0.26 0.26 87 1014.3
20260903225518 83 323 0.0 0.0 0.00 0.26 0.26 87 1014.1
20260903225018 83 323 0.0 0.0 0.00 0.26 0.26 87 1013.9
20260903224515 83 323 0.0 0.0 0.00 0.26 0.26 86 1013.9
20260903224016 83 321 0.0 0.0 0.00 0.26 0.26 86 1013.9
20260903223513 83 321 0.0 0.0 0.00 0.26 0.26 86 1013.8
20260903223011 83 308 0.0 0.0 0.00 0.26 0.26 86 1013.7
20260903222515 83 308 0.0 0.0 0.00 0.26 0.26 87 1013.7
20260903222013 83 308 0.0 0.0 0.00 0.26 0.26 87 1013.6
20260903221512 83 308 0.0 0.0 0.00 0.26 0.26 88 1013.5
20260903221010 82 308 0.0 0.0 0.00 0.26 0.26 88 1013.4
20260903220513 82 308 0.0 0.0 0.00 0.26 0.26 88 1013.5
20260903220012 82 308 0.0 0.0 0.00 0.26 0.26 88 1013.5
20260903215510 82 308 0.0 0.0 0.00 0.30 0.26 88 1013.5
20260903215010 82 308 0.0 0.0 0.00 0.30 0.26 88 1013.5
20260903214512 82 308 0.0 0.0 0.00 0.30 0.26 88 1013.4
20260903214016 82 308 0.0 0.0 0.00 0.30 0.26 88 1013.3
20260903213508 82 308 0.0 0.0 0.00 0.30 0.26 88 1013.5
20260903213006 82 308 0.0 0.0 0.00 0.30 0.26 89 1013.5
20260903212507 82 308 0.0 0.0 0.00 0.30 0.26 88 1013.3
20260903212009 82 308 0.0 0.0 0.00 0.30 0.26 88 1013.2
20260903211504 82 308 0.0 0.0 0.00 0.30 0.26 88 1013.1
20260903211004 81 308 0.0 0.0 0.00 0.30 0.26 88 1013.2
20260903210502 82 225 0.0 0.0 0.00 0.30 0.26 88 1013.3
20260903210002 81 89 0.0 0.0 0.00 0.31 0.26 88 1013.3
20260903205559 81 46 0.0 0.0 0.00 0.31 0.26 89 1013.5
20260903205059 81 347 0.0 0.0 0.00 0.31 0.26 89 1013.6
20260903204558 81 4 0.0 0.0 0.00 0.31 0.26 88 1013.7
20260903204058 81 308 0.0 0.0 0.00 0.31 0.26 88 1013.8
20260903203557 81 125 0.0 0.0 0.00 0.31 0.26 88 1013.8
20260903203106 81 265 0.0 0.0 0.00 0.31 0.26 89 1013.7
20260903202555 82 324 0.0 0.0 0.01 0.31 0.26 89 1013.7
20260903202057 82 297 0.0 0.0 0.04 0.31 0.26 90 1013.8
20260903201554 82 297 0.0 0.0 0.04 0.31 0.26 90 1013.9
20260903201053 81 300 0.0 0.0 0.04 0.31 0.26 89 1014.0
20260903200554 81 334 0.0 0.0 0.04 0.31 0.26 90 1014.3
20260903200052 81 335 0.0 0.0 0.04 0.31 0.26 90 1014.3
20260903195551 81 343 0.0 0.0 0.04 0.59 0.26 90 1014.4
20260903195051 81 337 0.0 0.0 0.04 0.59 0.26 89 1014.4
20260903194554 82 338 0.0 0.0 0.04 0.59 0.26 89 1014.3
20260903194048 82 338 0.0 0.0 0.04 0.59 0.26 89 1014.6
20260903193548 82 146 0.0 0.0 0.04 0.59 0.26 88 1014.8
20260903193049 83 333 0.0 1.0 0.04 0.59 0.26 87 1014.6
20260903192648 84 333 0.0 1.0 0.03 0.57 0.25 86 1014.7
20260903192046 85 302 0.0 1.0 0.00 0.55 0.22 85 1014.5
20260903191545 85 290 0.0 1.0 0.00 0.55 0.22 85 1014.3
20260903191044 85 165 0.0 2.0 0.00 0.55 0.22 85 1014.3
20260903190546 85 139 0.0 1.0 0.00 0.55 0.22 85 1014.6
20260903190043 85 98 0.0 1.0 0.00 0.55 0.22 84 1014.6
20260903185542 86 307 0.0 0.0 0.00 0.56 0.22 85 1014.6
20260903185042 86 314 0.0 0.0 0.00 0.56 0.22 85 1014.6
20260903184541 87 295 0.0 0.0 0.00 0.56 0.22 85 1014.6
20260903184038 86 8 0.0 1.0 0.00 0.56 0.22 86 1014.6
20260903183537 86 301 0.0 1.0 0.00 0.56 0.22 86 1014.6
20260903183036 86 328 0.0 0.0 0.00 0.56 0.22 86 1014.8
20260903182535 86 139 0.0 0.0 0.00 0.56 0.22 87 1014.9
20260903182033 85 166 0.0 1.0 0.00 0.56 0.22 88 1014.9
20260903181533 85 307 0.0 2.0 0.00 0.56 0.22 87 1015.1
20260903181030 85 312 0.0 2.0 0.00 0.56 0.22 87 1015.2
20260903180528 84 245 0.0 2.0 0.00 0.56 0.22 89 1015.4
20260903180032 84 319 0.0 2.0 0.00 0.56 0.22 88 1015.4
20260903175525 83 27 0.0 2.0 0.00 0.56 0.22 89 1015.4
20260903175025 83 37 0.0 1.0 0.00 0.56 0.22 89 1015.5
20260903174523 83 147 0.0 3.0 0.00 0.56 0.22 90 1015.5
20260903174022 83 262 0.0 3.0 0.00 0.56 0.22 89 1015.5
20260903173525 83 276 0.0 4.0 0.00 0.56 0.22 91 1015.6
20260903173019 82 113 0.0 4.0 0.00 0.56 0.22 93 1015.6
20260903172518 81 60 0.0 4.0 0.00 0.56 0.22 93 1015.7
20260903172017 81 227 0.0 2.0 0.00 0.56 0.22 95 1015.7
20260903171526 80 307 0.0 2.0 0.00 0.56 0.22 95 1015.8
20260903171018 80 309 0.0 1.0 0.00 0.56 0.22 95 1015.8
20260903170515 79 309 0.0 0.0 0.02 0.56 0.22 95 1016.0
20260903170031 79 309 0.0 0.0 0.03 0.56 0.22 95 1016.1
20260903165517 78 309 0.0 0.0 0.05 0.56 0.22 95 1016.3
20260903165015 78 309 0.0 0.0 0.08 0.56 0.22 95 1016.4
20260903164517 78 309 0.0 0.0 0.13 0.56 0.22 95 1016.3
20260903164013 77 309 0.0 0.0 0.13 0.56 0.22 94 1016.3
20260903163511 77 309 0.0 0.0 0.13 0.56 0.22 94 1016.3
20260903163020 77 309 0.0 0.0 0.18 0.56 0.22 94 1016.3
20260903162510 77 309 0.0 0.0 0.19 0.56 0.22 94 1016.3
20260903162010 76 309 0.0 0.0 0.19 0.56 0.22 94 1016.2
20260903161510 76 309 0.0 2.0 0.19 0.56 0.22 94 1016.2
20260903161009 76 13 0.0 2.0 0.19 0.56 0.22 94 1016.4
20260903160509 76 165 0.0 3.0 0.17 0.54 0.20 94 1016.4
20260903160008 76 3 0.0 5.0 0.16 0.53 0.19 93 1016.6
20260903155507 77 281 0.0 7.0 0.13 0.50 0.16 93 1016.7
20260903155006 77 328 1.0 7.0 0.10 0.47 0.13 93 1016.8